TimeEST,TemperatureF,Dew PointF,Humidity,Sea Level PressureIn,VisibilityMPH,Wind Direction,Wind SpeedMPH,Gust SpeedMPH,PrecipitationIn,Events,Conditions,WindDirDegrees,DateUTC
12:15 AM,41.0,40.5,98,29.62,10.0,WSW,6.9,-,N/A,,Overcast,250,2013-02-27 05:15:00
12:35 AM,41.2,40.1,96,29.61,10.0,WSW,10.4,-,N/A,,Overcast,250,2013-02-27 05:35:00
12:55 AM,41.2,39.9,95,29.62,10.0,WSW,10.4,-,N/A,,Overcast,250,2013-02-27 05:55:00
1:15 AM,41.0,39.2,93,29.63,10.0,WSW,12.7,19.6,N/A,,Overcast,250,2013-02-27 06:15:00
1:35 AM,40.6,38.5,92,29.63,10.0,WSW,11.5,21.9,N/A,,Overcast,250,2013-02-27 06:35:00
1:55 AM,40.1,39.2,97,29.63,10.0,WSW,12.7,17.3,N/A,,Overcast,240,2013-02-27 06:55:00
2:15 AM,39.4,39.2,99,29.63,10.0,WSW,11.5,-,N/A,,Overcast,250,2013-02-27 07:15:00
2:35 AM,39.4,38.5,97,29.62,10.0,West,15.0,20.7,N/A,,Overcast,260,2013-02-27 07:35:00
2:55 AM,39.2,38.7,98,29.61,10.0,West,15.0,-,N/A,,Overcast,270,2013-02-27 07:55:00
3:15 AM,39.2,38.3,97,29.61,10.0,West,11.5,-,N/A,,Overcast,260,2013-02-27 08:15:00
3:35 AM,39.4,37.0,91,29.61,10.0,West,16.1,20.7,N/A,,Overcast,270,2013-02-27 08:35:00
3:55 AM,39.4,36.5,89,29.61,10.0,West,16.1,20.7,N/A,,Overcast,270,2013-02-27 08:55:00
4:15 AM,39.7,34.9,83,29.62,10.0,West,17.3,21.9,N/A,,Overcast,260,2013-02-27 09:15:00
4:35 AM,39.2,34.5,83,29.63,10.0,West,16.1,23.0,N/A,,Overcast,260,2013-02-27 09:35:00
4:55 AM,38.8,32.9,79,29.63,10.0,West,23.0,33.4,N/A,,Overcast,270,2013-02-27 09:55:00
5:35 AM,37.8,33.3,84,29.65,7.0,West,23.0,33.4,N/A,,Overcast,270,2013-02-27 10:35:00
5:55 AM,37.4,33.1,84,29.66,10.0,West,18.4,27.6,N/A,,Overcast,260,2013-02-27 10:55:00
6:15 AM,37.4,32.0,81,29.66,10.0,West,21.9,26.5,N/A,,Overcast,260,2013-02-27 11:15:00
6:35 AM,37.0,32.5,84,29.66,10.0,West,26.5,34.5,N/A,,Overcast,260,2013-02-27 11:35:00
6:55 AM,36.9,32.5,84,29.67,10.0,WSW,23.0,32.2,N/A,,Mostly Cloudy,250,2013-02-27 11:55:00
7:15 AM,36.7,32.4,84,29.68,10.0,West,23.0,31.1,N/A,,Mostly Cloudy,260,2013-02-27 12:15:00
7:35 AM,37.0,33.1,86,29.69,10.0,West,19.6,28.8,N/A,,Overcast,260,2013-02-27 12:35:00
7:55 AM,37.4,33.1,84,29.69,10.0,West,18.4,29.9,N/A,,Overcast,270,2013-02-27 12:55:00
8:15 AM,37.6,33.6,86,29.70,10.0,West,20.7,26.5,N/A,,Overcast,260,2013-02-27 13:15:00
8:35 AM,37.9,33.6,84,29.71,10.0,West,20.7,28.8,N/A,,Overcast,260,2013-02-27 13:35:00
8:55 AM,37.9,33.4,84,29.72,10.0,West,20.7,28.8,N/A,,Overcast,270,2013-02-27 13:55:00
9:15 AM,37.9,33.4,84,29.73,10.0,WSW,18.4,24.2,N/A,,Overcast,250,2013-02-27 14:15:00
9:35 AM,38.3,33.8,84,29.73,10.0,West,20.7,25.3,N/A,,Overcast,270,2013-02-27 14:35:00
10:15 AM,38.3,33.4,83,29.74,10.0,West,21.9,27.6,N/A,,Overcast,260,2013-02-27 15:15:00
10:35 AM,38.3,32.9,81,29.75,10.0,WSW,19.6,27.6,N/A,,Overcast,250,2013-02-27 15:35:00
10:55 AM,38.3,33.1,81,29.76,10.0,WSW,15.0,20.7,N/A,,Overcast,250,2013-02-27 15:55:00
11:15 AM,38.3,33.3,82,29.76,10.0,West,16.1,23.0,N/A,,Overcast,260,2013-02-27 16:15:00
11:35 AM,38.3,32.9,81,29.77,10.0,West,16.1,21.9,N/A,,Overcast,260,2013-02-27 16:35:00
11:55 AM,38.3,32.5,80,29.77,10.0,West,16.1,25.3,N/A,,Overcast,270,2013-02-27 16:55:00
12:15 PM,38.3,32.9,81,29.76,10.0,WSW,15.0,24.2,N/A,,Overcast,250,2013-02-27 17:15:00
12:35 PM,38.7,32.9,80,29.76,10.0,WSW,12.7,-,N/A,,Overcast,240,2013-02-27 17:35:00
1:15 PM,38.5,33.1,81,29.75,10.0,WSW,11.5,18.4,N/A,,Overcast,250,2013-02-27 18:15:00
1:35 PM,38.7,32.9,80,29.74,10.0,West,13.8,21.9,N/A,,Overcast,260,2013-02-27 18:35:00
1:55 PM,39.6,33.3,78,29.74,10.0,WSW,10.4,-,N/A,,Overcast,250,2013-02-27 18:55:00
2:15 PM,39.2,33.1,79,29.74,10.0,West,15.0,20.7,N/A,,Overcast,260,2013-02-27 19:15:00
2:35 PM,39.0,32.9,79,29.74,10.0,West,15.0,20.7,N/A,,Overcast,260,2013-02-27 19:35:00
2:55 PM,41.0,34.2,77,29.74,10.0,West,16.1,20.7,N/A,,Overcast,270,2013-02-27 19:55:00
3:15 PM,40.6,33.6,76,29.74,10.0,West,12.7,-,N/A,,Overcast,260,2013-02-27 20:15:00
3:35 PM,40.6,33.6,76,29.74,10.0,WSW,11.5,23.0,N/A,,Overcast,250,2013-02-27 20:35:00
3:55 PM,41.0,32.5,72,29.73,10.0,WSW,12.7,24.2,N/A,,Overcast,250,2013-02-27 20:55:00
4:15 PM,42.1,32.7,69,29.73,10.0,West,17.3,21.9,N/A,,Overcast,260,2013-02-27 21:15:00
4:35 PM,42.1,32.2,68,29.72,10.0,WSW,16.1,20.7,N/A,,Mostly Cloudy,240,2013-02-27 21:35:00
4:55 PM,41.2,32.4,71,29.72,10.0,WSW,11.5,18.4,N/A,,Mostly Cloudy,250,2013-02-27 21:55:00
5:15 PM,41.4,32.4,70,29.72,10.0,West,13.8,-,N/A,,Scattered Clouds,270,2013-02-27 22:15:00
5:35 PM,41.0,32.4,71,29.72,10.0,West,17.3,-,N/A,,Mostly Cloudy,270,2013-02-27 22:35:00
5:55 PM,40.6,32.2,72,29.72,10.0,West,15.0,19.6,N/A,,Scattered Clouds,270,2013-02-27 22:55:00
6:15 PM,40.3,32.2,73,29.73,10.0,West,11.5,19.6,N/A,,Mostly Cloudy,260,2013-02-27 23:15:00
6:35 PM,39.2,32.0,75,29.74,10.0,West,9.2,-,N/A,,Overcast,260,2013-02-27 23:35:00
6:55 PM,39.2,32.2,76,29.75,10.0,WSW,9.2,-,N/A,,Overcast,250,2013-02-27 23:55:00
7:15 PM,39.2,32.2,76,29.75,10.0,WSW,9.2,-,N/A,,Overcast,240,2013-02-28 00:15:00
7:35 PM,39.4,32.5,76,29.75,10.0,West,13.8,-,N/A,,Overcast,260,2013-02-28 00:35:00
7:55 PM,37.8,33.6,85,29.76,2.0,West,13.8,20.7,N/A,Snow,Light Snow,260,2013-02-28 00:55:00
8:15 PM,36.1,36.1,100,29.76,1.0,WSW,11.5,-,0.01,Snow,Light Snow,250,2013-02-28 01:15:00
8:35 PM,35.8,35.8,100,29.75,2.0,WSW,9.2,-,0.01,Snow,Light Snow,250,2013-02-28 01:35:00
9:15 PM,35.8,35.8,100,29.75,1.2,WSW,12.7,-,N/A,Snow,Light Snow,250,2013-02-28 02:15:00
9:35 PM,35.8,35.8,100,29.75,0.8,WSW,12.7,-,0.01,Snow,Light Snow,250,2013-02-28 02:35:00
9:55 PM,36.0,36.0,100,29.75,7.0,WSW,15.0,20.7,0.02,,Overcast,250,2013-02-28 02:55:00
10:15 PM,36.1,36.1,100,29.75,10.0,WSW,12.7,-,N/A,,Overcast,250,2013-02-28 03:15:00
10:35 PM,36.1,36.1,100,29.74,10.0,West,15.0,18.4,N/A,Rain,Light Rain,260,2013-02-28 03:35:00
10:55 PM,36.5,36.0,98,29.74,10.0,WSW,12.7,20.7,N/A,Snow,Light Snow,250,2013-02-28 03:55:00
11:15 PM,36.5,34.7,93,29.73,10.0,West,12.7,-,N/A,Snow,Light Snow,260,2013-02-28 04:15:00
11:35 PM,36.1,34.9,95,29.72,5.0,WSW,18.4,26.5,N/A,Snow,Light Snow,250,2013-02-28 04:35:00
11:55 PM,36.0,34.3,94,29.72,5.0,West,13.8,23.0,N/A,Snow,Light Snow,260,2013-02-28 04:55:00